ROMMA est une association bénévole à but non lucratif. Votre soutien est indispensable : ADHERER à ROMMA ou FAIRE un DON

Tourrette-Levens - (06, Alpes-Maritimes)

Côte-d'Azur (416 m)   Longitude: 07° 16' 12" E   Latitude: 43° 47' 24" N Station partenaire n°152
 

Détail journalier du     <<     >>

Température Precipitation Humidité Pression Vent Dir Rafale Dir. rafale Ensol.
Heure (°C) (mm) (%) (hPa) (km/h) (km/h) (min)
01:00 7.70861011000
02:00 7.808210111ONO6S0
03:00 7.608110113SO8SO0
04:00 7.108210121NO5NNE0
05:00 6.008410121NO6ONO0
06:00 5.508510121SO5SO0
07:00 6.708310131ONO5O0
08:00 8.407410141NE5NNE0
09:00 11.406310143ENE11ESE42
10:00 12.706310157SE18S58
11:00 13.306410157SE21SE56
12:00 12.506110155ESE18SSE15
13:00 13.406010156ESE19SSE10
14:00 15.405510158SSE24SSE57
15:00 14.805610169ESE26SSE60
16:00 14.306010169ESE26ENE60
17:00 13.205910169SE26SE60
18:00 12.006710177ESE24ESE21
19:00 11.306910175ESE16ESE0
20:00 9.507610182ESE11S0
21:00 8.308010181NO6NNO0
22:00 7.60821019000
23:00 7.20841019000
minuit 6.70871019000

Graphique du 06-05-2019

 

Serveur OMMA